Asteroid 2005 TE45
(Preview)
Solar System
0
514
The 58 - 130 metre wide asteroid 2005 TE45 will make a close pass (54.0 lunar distances, 0.1387 AU), travelling at 4.39 km/second, to the Earth-Moon system on the 30nd October, 2010 @ 12:02 UT. See more The Lunar Distance (...
Asteroid 2010 NA
(Preview)
Solar System
1
467
Orbital elements: 2010 NA Earth MOID = 0.1014 AU Epoch 2010 July 23.0 TT = JDT 2455400.5 MPC M 346.21395 (2000.0) P Q n 0.43081793 Peri. 202.91282 +0.96213073 -0.27223263 a 1.7362284 Node 172.84156 +0.26419329 +0.91870325 e 0.6576104 Incl. 6.41507 +0.06712946 +0.28613586 P 2.29 H 20.4 G 0.15 U 8 [u...
Drake Municipal Observatory
(Preview)
Events
0
517
[url=http://www.desmoinesregister.com/article/20100703/NEWS/100702027/1001/NEWS/Drake-observatory-to-h...
National Trust night walk
(Preview)
Events
0
530
On August 12 there is a meteor shower night walk from 8.30pm to 10.30pm revealing Stonehenge at night, rich in archaeology, intriguing stories and a sky full of stars.
[url=http://www...
BlobFest
(Preview)
Events
2
1727
'Blob' fans enjoy ooze and ahs This July, as they have for the past seven, fright freaks will swarm into Phoenixville, Pa., a flyspeck steel town at the junction of French Creek and the Schuylkill River. It was here in a nearby field that a movie legend was born. After oozing from a meteorite, an amorpho...
2004 XP14
(
1 2
)
(Preview)
Solar System
11
11756
This coming July features a spectacular flyby of the near-Earth Apollo asteroid 2004 XP14 . Like the flyby of 2002 NY40 in 2002, 2004 XP14 will amaze visual observers with incredible speed visible in medium size telescopes.
Near close approach around 4:44m UT July 3, this 600-meter/ya...
Louis Moinet watch
(Preview)
Meteorite News
1
608
LOUIS MOINET - Meteoris A unique objet d'art, METEORIS unites the most legendary meteorites and depicts the solar system in truly spectacular fashion. METEORIS is composed of four tourbillons and a new form of planetarium. "METEORIS" TOURBILLONS 1st "METEORIS" Tourbill...
Predators Movie
(Preview)
Audio Visual
0
2052
Predators - International Trailer Click to Play | View Details Predators Movie Trailer Click to Play | View Details
Badlands Mars expedition
(Preview)
Events
0
528
Mars expedition sets down in the Badlands
The warm winds stroking the "Martian" landscape of Pine Ridge Indian Reservation on Thursday were similar to those that buffet the Red Planet, although the 93-degree temperature was significantly warmer than a summer day on Mars. On its warm...
Nikon Monarch ATB Binoculars
(Preview)
Telescopes
2
8534
Nikon Monarch ATB Rebate New Low Price Mail-In Rebate** After $50 mail-in Rebate 8x42 Monarch $279.95 SRP* -$50.00 $229.95 10x42 Monarch $299.95 SRP* -$50.00 $249.95 12x42 Monarch $319.95 SRP* -$50.00 $269.95 Valid August 1, 2009 - Octobe...
Delta II rocket body re-entry
(Preview)
Mission News
9
755
A DELTA 2 rocket body that was launched from Cape Canaveral at 22:54 UT on 23 June 2004, for the NAVSTAR 55 (USA 178) mission, is predicted to re-enter the Earths atmosphere on the 1st July, 2010 @ 00:00 GMT ± - hour. TLE Data pre>DELTA 2 RB 1 28363U 04023C 10167.05272587 .03140392 45121-5 57868-3 91...
IC2118
(Preview)
Art gallery
1
3173
This reflection nebula is associated with the bright star Rigel in the constellation Orion.
The Witch Head Nebula, also known as IC 2118, glows primarily by light reflected from bright star Rigel, located just off the upper right edge of the full image. Fine dust in the nebula reflects the light. T...
Possible nova in Ophiuchus
(Preview)
Astronomy News
0
606
A possible magnitude 10.4 nova was discovered on the 30th June, 2010, in the constellation Ophiuchus. Position (2000): RA 17 30 23.65, Dec -22 22 54.9
Asteroid 2010 MR87
(Preview)
Solar System
0
2688
Orbital elements: 2010 MR87 Earth MOID = 0.1497 AU Epoch 2010 July 23.0 TT = JDT 2455400.5 MPC M 345.93514 (2000.0) P Q n 0.43665024 Peri. 132.29449 +0.81084968 +0.56488521 a 1.7207334 Node 195.52847 -0.53940618 +0.82279027 e 0.3867931 Incl. 34.87056 +0.22707659 -0.06261690 P 2.26 H 19.5 G 0.15 U...
Possible supernova in NGC3244
(Preview)
Astronomy News
1
640
A possible magnitude 14.3 supernova was discovered on the 27th June, 2010, in the spiral galaxy NGC3244 in the constellation Antlia.
The supernova is located 2" East and 12" South from the center of the galaxy.
Position (2000): RA 10 25 28.99, Dec -39 49 51.2
«First < 1
1890 1891 1892 1893 1894
2461 > Last» | Page
